• En España
  • Lista de países
  • Para 7 días
  • Temperatura del agua
  • Mapa Satelital
  • El tiempo en el mapa
  • Informadores
  • user-avatar
    Iniciar sesión

    Tiempo cada hora Rebordosa

    Hoy, 25 Noviembre, Sábado

    Tiempo Temperatura Precipitaciones Viento Presión Humedad
    00:00 +14°C° 0,3 mm 2 mps 734 mmHg 96%
    01:00 +14°C° 0,3 mm 2 mps 734 mmHg 95%
    02:00 +14°C° 0,3 mm 2 mps 734 mmHg 95%
    03:00 +14°C° 0,1 mm 2 mps 734 mmHg 94%
    04:00 +13°C° 0,1 mm 2 mps 734 mmHg 94%
    05:00 +13°C° 0,1 mm 2 mps 735 mmHg 93%
    06:00 +13°C° 0,1 mm 2 mps 735 mmHg 91%
    07:00 +13°C° 0,1 mm 2 mps 735 mmHg 89%
    08:00 +13°C° 0,1 mm 2 mps 736 mmHg 87%
    09:00 +14°C° 0 mm 2 mps 736 mmHg 81%
    10:00 +15°C° 0 mm 2 mps 736 mmHg 75%
    11:00 +17°C° 0 mm 3 mps 736 mmHg 70%
    12:00 +17°C° 0 mm 3 mps 736 mmHg 68%
    13:00 +17°C° 0 mm 3 mps 736 mmHg 67%
    14:00 +17°C° 0 mm 3 mps 736 mmHg 66%
    15:00 +16°C° 0 mm 3 mps 736 mmHg 69%
    16:00 +14°C° 0 mm 3 mps 736 mmHg 72%
    17:00 +12°C° 0 mm 3 mps 736 mmHg 75%
    18:00 +12°C° 0 mm 3 mps 737 mmHg 75%
    19:00 +11°C° 0 mm 3 mps 737 mmHg 75%
    20:00 +11°C° 0 mm 3 mps 738 mmHg 75%
    21:00 +10°C° 0 mm 3 mps 738 mmHg 74%
    22:00 +10°C° 0 mm 3 mps 739 mmHg 73%
    23:00 +10°C° 0 mm 3 mps 739 mmHg 72%

    Mañana, 26 Noviembre, Domingo

    Tiempo Temperatura Precipitaciones Viento Presión Humedad
    00:00 +9°C° 0 mm 3 mps 739 mmHg 71%
    01:00 +8°C° 0 mm 4 mps 739 mmHg 71%
    02:00 +7°C° 0 mm 4 mps 739 mmHg 70%
    03:00 +7°C° 0 mm 4 mps 740 mmHg 70%
    04:00 +6°C° 0 mm 4 mps 740 mmHg 69%
    05:00 +6°C° 0 mm 4 mps 740 mmHg 69%
    06:00 +6°C° 0 mm 4 mps 740 mmHg 67%
    07:00 +7°C° 0 mm 4 mps 741 mmHg 64%
    08:00 +7°C° 0 mm 4 mps 741 mmHg 61%
    09:00 +8°C° 0 mm 4 mps 741 mmHg 57%
    10:00 +11°C° 0 mm 3 mps 741 mmHg 52%
    11:00 +12°C° 0 mm 3 mps 741 mmHg 47%
    12:00 +13°C° 0 mm 3 mps 741 mmHg 46%
    13:00 +13°C° 0 mm 3 mps 741 mmHg 46%
    14:00 +13°C° 0 mm 3 mps 740 mmHg 45%
    15:00 +12°C° 0 mm 3 mps 740 mmHg 49%
    16:00 +10°C° 0 mm 3 mps 741 mmHg 54%
    17:00 +9°C° 0 mm 3 mps 741 mmHg 58%
    18:00 +8°C° 0 mm 3 mps 741 mmHg 59%
    19:00 +8°C° 0 mm 3 mps 741 mmHg 60%
    20:00 +7°C° 0 mm 3 mps 741 mmHg 61%
    21:00 +7°C° 0 mm 3 mps 741 mmHg 60%
    22:00 +7°C° 0 mm 3 mps 741 mmHg 60%
    23:00 +7°C° 0 mm 3 mps 741 mmHg 60%

    Pasado mañana, 27 Noviembre, Lunes

    Tiempo Temperatura Precipitaciones Viento Presión Humedad
    00:00 +7°C° 0 mm 3 mps 741 mmHg 60%
    01:00 +7°C° 0 mm 2 mps 741 mmHg 60%
    02:00 +7°C° 0 mm 2 mps 740 mmHg 60%
    03:00 +6°C° 0 mm 2 mps 740 mmHg 61%
    04:00 +6°C° 0 mm 2 mps 740 mmHg 63%
    05:00 +6°C° 0 mm 2 mps 740 mmHg 64%
    06:00 +6°C° 0 mm 2 mps 740 mmHg 63%
    07:00 +7°C° 0 mm 2 mps 740 mmHg 61%
    08:00 +7°C° 0 mm 2 mps 740 mmHg 60%
    09:00 +9°C° 0 mm 2 mps 740 mmHg 55%
    10:00 +12°C° 0 mm 2 mps 740 mmHg 50%
    11:00 +14°C° 0 mm 2 mps 740 mmHg 45%
    12:00 +14°C° 0 mm 1 mps 739 mmHg 44%
    13:00 +15°C° 0 mm 1 mps 739 mmHg 44%
    14:00 +15°C° 0 mm 1 mps 738 mmHg 43%
    15:00 +14°C° 0 mm 1 mps 738 mmHg 48%
    16:00 +13°C° 0 mm 1 mps 738 mmHg 52%
    17:00 +11°C° 0 mm 1 mps 737 mmHg 57%
    18:00 +11°C° 0 mm 1 mps 737 mmHg 58%
    19:00 +11°C° 0 mm 1 mps 737 mmHg 59%
    20:00 +10°C° 0 mm 1 mps 737 mmHg 61%
    21:00 +10°C° 0 mm 1 mps 737 mmHg 60%
    22:00 +10°C° 0 mm 1 mps 737 mmHg 60%
    23:00 +10°C° 0 mm 1 mps 737 mmHg 59%

    28 Noviembre, Martes

    Tiempo Temperatura Precipitaciones Viento Presión Humedad
    00:00 +10°C° 0,2 mm 1 mps 736 mmHg 63%
    01:00 +9°C° 0,2 mm 2 mps 736 mmHg 66%
    02:00 +9°C° 0,2 mm 2 mps 735 mmHg 70%
    03:00 +9°C° 0,1 mm 2 mps 735 mmHg 71%
    04:00 +9°C° 0,1 mm 2 mps 734 mmHg 73%
    05:00 +9°C° 0,1 mm 2 mps 734 mmHg 75%
    06:00 +10°C° 0,2 mm 2 mps 734 mmHg 76%
    07:00 +10°C° 0,2 mm 2 mps 734 mmHg 77%
    08:00 +10°C° 0,2 mm 2 mps 734 mmHg 78%
    09:00 +12°C° 0,1 mm 2 mps 733 mmHg 76%
    10:00 +13°C° 0,1 mm 1 mps 733 mmHg 73%
    11:00 +15°C° 0,1 mm 1 mps 732 mmHg 70%
    12:00 +14°C° 0,2 mm 1 mps 731 mmHg 72%
    13:00 +14°C° 0,2 mm 1 mps 731 mmHg 74%
    14:00 +14°C° 0,2 mm 2 mps 730 mmHg 76%
    15:00 +14°C° 0,3 mm 2 mps 729 mmHg 78%
    16:00 +13°C° 0,3 mm 2 mps 729 mmHg 81%
    17:00 +12°C° 0,3 mm 2 mps 729 mmHg 84%
    18:00 +12°C° 0,5 mm 2 mps 728 mmHg 85%
    19:00 +12°C° 0,5 mm 2 mps 728 mmHg 87%
    20:00 +12°C° 0,5 mm 2 mps 728 mmHg 88%
    21:00 +12°C° 0,6 mm 2 mps 727 mmHg 88%
    22:00 +12°C° 0,6 mm 2 mps 727 mmHg 89%
    23:00 +10°C° 0,6 mm 2 mps 727 mmHg 89%

    29 Noviembre, Miércoles

    Tiempo Temperatura Precipitaciones Viento Presión Humedad
    00:00 +10°C° 0,8 mm 2 mps 726 mmHg 89%
    01:00 +10°C° 0,8 mm 3 mps 726 mmHg 89%
    02:00 +10°C° 0,8 mm 3 mps 725 mmHg 88%
    03:00 +9°C° 0,3 mm 3 mps 725 mmHg 88%
    04:00 +9°C° 0,3 mm 3 mps 725 mmHg 87%
    05:00 +7°C° 0,3 mm 4 mps 725 mmHg 86%
    06:00 +7°C° 0 mm 4 mps 725 mmHg 84%
    07:00 +7°C° 0 mm 4 mps 725 mmHg 82%
    08:00 +7°C° 0 mm 4 mps 726 mmHg 80%
    09:00 +8°C° 0 mm 4 mps 726 mmHg 72%
    10:00 +10°C° 0 mm 4 mps 726 mmHg 65%
    11:00 +12°C° 0 mm 4 mps 726 mmHg 58%
    12:00 +12°C° 0 mm 4 mps 726 mmHg 57%
    13:00 +12°C° 0 mm 4 mps 726 mmHg 56%
    14:00 +12°C° 0 mm 4 mps 726 mmHg 55%
    15:00 +11°C° 0 mm 4 mps 726 mmHg 59%
    16:00 +10°C° 0 mm 4 mps 727 mmHg 64%
    17:00 +7°C° 0 mm 4 mps 727 mmHg 68%
    18:00 +7°C° 0 mm 4 mps 728 mmHg 69%
    19:00 +7°C° 0 mm 3 mps 728 mmHg 70%
    20:00 +7°C° 0 mm 3 mps 729 mmHg 71%
    21:00 +7°C° 0 mm 3 mps 729 mmHg 70%
    22:00 +5°C° 0 mm 3 mps 730 mmHg 69%
    23:00 +5°C° 0 mm 3 mps 730 mmHg 69%

    30 Noviembre, Jueves

    Tiempo Temperatura Precipitaciones Viento Presión Humedad
    00:00 +5°C° 0 mm 3 mps 730 mmHg 68%
    01:00 +5°C° 0 mm 3 mps 730 mmHg 68%
    02:00 +5°C° 0 mm 2 mps 731 mmHg 68%
    03:00 +5°C° 0 mm 2 mps 731 mmHg 69%
    04:00 +4°C° 0 mm 2 mps 731 mmHg 70%
    05:00 +4°C° 0 mm 2 mps 731 mmHg 71%
    06:00 +4°C° 0 mm 2 mps 732 mmHg 69%
    07:00 +5°C° 0 mm 2 mps 732 mmHg 67%
    08:00 +5°C° 0 mm 2 mps 733 mmHg 65%
    09:00 +7°C° 0 mm 2 mps 733 mmHg 57%
    10:00 +9°C° 0 mm 1 mps 733 mmHg 50%
    11:00 +11°C° 0 mm 1 mps 734 mmHg 43%
    12:00 +10°C° 0 mm 2 mps 734 mmHg 42%
    13:00 +10°C° 0 mm 2 mps 734 mmHg 41%
    14:00 +11°C° 0 mm 3 mps 733 mmHg 40%
    15:00 +9°C° 0 mm 3 mps 734 mmHg 46%
    16:00 +8°C° 0 mm 3 mps 734 mmHg 52%
    17:00 +5°C° 0 mm 3 mps 735 mmHg 57%
    18:00 +5°C° 0 mm 3 mps 735 mmHg 60%
    19:00 +5°C° 0 mm 2 mps 735 mmHg 62%
    20:00 +5°C° 0 mm 2 mps 736 mmHg 65%
    21:00 +5°C° 0 mm 2 mps 736 mmHg 66%
    22:00 +4°C° 0 mm 2 mps 736 mmHg 68%
    23:00 +4°C° 0 mm 2 mps 736 mmHg 70%
    Mostrar más